This is the latest recevied weather packets stored in our database for station/object KE8KMM. If no packets are shown the sender has not sent any weather packets the latest 10 day(s).
| Time | Temp. | Humidity | Pressure | Rain* | Wind** | Luminosity | Snow |
|---|---|---|---|---|---|---|---|
| 1777929844 | 22.22° C | 58% | 1005.4 hPa | 0 mm | - | 93 W/m² | - |
| 1777929542 | 23.33° C | 56% | 1005.1 hPa | 0 mm | - | 137 W/m² | - |
| 1777929238 | 22.78° C | 57% | 1005.2 hPa | 0 mm | - | 429 W/m² | - |
| 1777928935 | 22.78° C | 55% | 1005.4 hPa | 0 mm | - | 464 W/m² | - |
| 1777928632 | 22.78° C | 55% | 1005.4 hPa | 0 mm | - | 174 W/m² | - |
| 1777928329 | 22.78° C | 56% | 1005.5 hPa | 0 mm | - | 227 W/m² | - |
| 1777928027 | 23.33° C | 55% | 1005.3 hPa | 0 mm | - | 135 W/m² | - |
| 1777927725 | 23.89° C | 56% | 1005.2 hPa | 0 mm | - | 394 W/m² | - |
| 1777927423 | 23.33° C | 58% | 1005 hPa | 0 mm | - | 564 W/m² | - |
| 1777927122 | 23.33° C | 56% | 1005.2 hPa | 0 mm | - | 313 W/m² | - |
| 1777926819 | 22.78° C | 56% | 1005.1 hPa | 0 mm | - | 307 W/m² | - |
| 1777926514 | 22.22° C | 58% | 1005.4 hPa | 0 mm | - | 186 W/m² | - |
| 1777926212 | 22.22° C | 57% | 1005.3 hPa | 0 mm | - | 206 W/m² | - |
| 1777925908 | 22.78° C | 56% | 1005.1 hPa | 0 mm | - | 237 W/m² | - |
| 1777925606 | 22.78° C | 55% | 1005.1 hPa | 0 mm | - | 210 W/m² | - |
| 1777925303 | 22.78° C | 57% | 1005.2 hPa | 0 mm | - | 244 W/m² | - |
| 1777925000 | 22.22° C | 56% | 1005.3 hPa | 0 mm | - | 205 W/m² | - |
| 1777924696 | 22.78° C | 55% | 1005.3 hPa | 0 mm | - | 250 W/m² | - |
| 1777924392 | 22.22° C | 57% | 1005.5 hPa | 0 mm | - | 295 W/m² | - |
| 1777924089 | 22.22° C | 56% | 1005.4 hPa | 0 mm | - | 251 W/m² | - |
| 1777923785 | 22.22° C | 60% | 1005.3 hPa | 0 mm | - | 266 W/m² | - |
| 1777923481 | 21.67° C | 58% | 1005.3 hPa | 0 mm | - | 203 W/m² | - |
| 1777923178 | 21.67° C | 58% | 1005.3 hPa | 0 mm | - | 176 W/m² | - |
| 1777922877 | 22.22° C | 57% | 1005.3 hPa | 0 mm | - | 146 W/m² | - |
| 1777922574 | 22.78° C | 58% | 1005.6 hPa | 0 mm | - | 148 W/m² | - |
* Rain latest hour (hover to see other rain measurements)
** Current wind speed in m/s (hover to see current wind gust speed)